Location: Hagen
(51.3456°N, 7.4557°E)
Time: 13:29:22
(UTC+01:00)

N. Korean satellite - Visible Passes

Search period start: 21 January 2018 00:00
Search period end: 31 January 2018 00:00
Orbit: 458 x 515 km, 97.2° (Epoch: 20 January)

Date Brightness Start Highest point End Pass type
(mag) Time Alt. Az. Time Alt. Az. Time Alt. Az.
21 Jan 10.1 06:07:19 10° ENE 06:08:21 11° E 06:09:24 10° ESE visible
21 Jan 6.4 07:38:52 10° N 07:42:18 65° WNW 07:45:43 10° SSW visible
21 Jan 6.6 18:19:44 10° S 18:23:20 79° WSW 18:26:53 10° NNW visible
22 Jan 7.0 07:15:11 10° NNE 07:18:38 65° ESE 07:22:04 10° S visible
22 Jan 6.6 17:56:11 10° SSE 17:59:41 55° ENE 18:03:08 10° N visible
22 Jan 10.0 19:31:38 10° WSW 19:33:31 14° W 19:35:24 10° WNW visible
23 Jan 8.4 06:51:41 10° NNE 06:54:53 33° E 06:58:03 10° SSE visible
23 Jan 9.1 19:06:43 10° SSW 19:09:38 23° W 19:12:33 10° NW visible
24 Jan 9.5 06:28:30 10° NE 06:31:03 19° E 06:33:36 10° SE visible
24 Jan 7.9 18:42:27 10° S 18:45:51 42° W 18:49:13 10° NNW visible
25 Jan 10.2 06:06:12 10° ENE 06:07:08 11° E 06:08:06 10° ESE visible
25 Jan 6.4 07:37:39 10° N 07:41:06 67° WNW 07:44:32 10° SSW visible
25 Jan 6.6 18:18:35 10° S 18:22:07 81° WSW 18:25:39 10° NNW visible
26 Jan 7.0 07:13:58 10° NNE 07:17:25 63° ESE 07:20:51 10° S visible
26 Jan 6.6 17:55:01 10° SSE 17:58:28 53° ENE 18:01:54 10° N visible
26 Jan 10.0 19:30:25 10° WSW 19:32:18 14° W 19:34:11 10° WNW visible
27 Jan 8.5 06:50:28 10° NNE 06:53:39 33° E 06:56:49 10° SSE visible
27 Jan 9.1 19:05:31 10° SSW 19:08:26 24° W 19:11:19 10° NW visible
28 Jan 9.6 06:27:16 10° NE 06:29:49 19° E 06:32:21 10° SE visible
28 Jan 7.9 18:41:15 10° S 18:44:37 43° W 18:47:58 10° NNW visible
29 Jan 10.2 06:05:01 10° ENE 06:05:53 11° E 06:06:46 10° ESE visible
29 Jan 6.4 07:36:23 10° N 07:39:51 69° WNW 07:43:19 10° SSW visible
29 Jan 6.6 18:17:22 10° SSE 18:20:53 83° WSW 18:24:22 10° NNW visible
30 Jan 7.1 07:12:41 10° NNE 07:16:09 61° E 07:19:37 10° S visible
30 Jan 6.6 17:53:49 10° SSE 17:57:13 51° ENE 18:00:36 10° N visible
30 Jan 10.0 19:29:09 10° WSW 19:31:02 14° W 19:32:56 10° WNW visible
